[[{"header":{"parameterUnit":"m.s-1","parameterCategory":2,"la1":30.2991,"la2":30.254,"lo1":-89.0895,"lo2":-89.0444,"dy":0.0017,"dx":0.0017,"nx":28,"ny":28,"refTime":"2025-07-12T03:00:00:Z","depth":"0","parameterNumber":2,"parameterNumberName":"U-component_of_CURRENTS"},"data":[0,0,0,0,0,0,0,0,0,0,0,0,0,0,0,0,0,0,0,0,0,0,0,0,0,0,0,0,0,0,0,0,0,0,0,0,0,0,0,0,0,0,0,0,0,0,0,0,0,0,0,0,0,0,0,0,0,0,0.494,0.4942,0,0.5069,0.507,0.5071,0.5082,0.5082,0.5081,0.508,0.5023,0.5023,0.5022,0,0,0,0,0,0,0,0,0,0,0,0,0,0.4784,0.4786,0.494,0.4942,0.4944,0.5069,0.507,0.5071,0.5083,0.5082,0.5081,0.508,0.5024,0.5023,0.5022,0,0,0,0,0,0,0,0,0,0,0,0,0,0.4871,0.4787,0.494,0.4969,0.4974,0.5069,0.507,0.5072,0.5083,0.5082,0.508,0.5079,0.5024,0.5023,0.5022,0.504,0,0,0.5018,0.5018,0,0,0,0,0,0,0,0,0.4866,0.4875,0.4963,0.4968,0.4973,0.5064,0.4995,0.5054,0.5083,0.5035,0.508,0.5079,0.5024,0.5023,0.5045,0.5038,0.5035,0.5018,0.5018,0.5017,0.5017,0,0,0,0,0,0,0,0.4859,0.4871,0.4985,0.4965,0.4972,0.5005,0.5014,0.5007,0.5027,0.5039,0.5042,0.5066,0.5025,0.5046,0.5043,0.5034,0.5018,0.5017,0.5017,0.5016,0.5158,0.5162,0,0,0,0,0,0,0.4853,0.4865,0.4981,0.499,0.4922,0.5008,0.5019,0.5031,0.5031,0.5034,0.5067,0.5066,0.5048,0.5044,0.5041,0.5159,0.5017,0.5016,0.5016,0.5154,0.5159,0.5164,0,0,0,0,0,0,0.4849,0.4862,0.4976,0.4935,0.4953,0.5012,0.5026,0.5034,0.5062,0.5056,0.5053,0.5088,0.5047,0.5042,0.5089,0.5153,0.5016,0.5015,0.5148,0.5155,0.5161,0.5333,0,0,0,0,0,0,0.4844,0.4859,0.4854,0.4935,0.4955,0.5044,0.5028,0.5038,0.5082,0.5082,0.5072,0.5066,0.5046,0.5092,0.5088,0.5149,0.5014,0.5143,0.5152,0.5159,0.5322,0.5345,0.5365,0,0,0,0,0,0.4837,0.4843,0.4852,0.4867,0.4949,0.5047,0.506,0.5094,0.5084,0.511,0.5132,0.5066,0.5141,0.5095,0.509,0.5151,0.5139,0.5149,0.5159,0.5312,0.534,0.5364,0,0,0,0,0,0,0.4767,0.4848,0.4859,0.4885,0.4965,0.5051,0.5077,0.5104,0.5144,0.5139,0.5119,0.5117,0.5182,0.5151,0.51,0.5222,0.513,0.514,0.5249,0.5275,0.5296,0.5322,0.5013,0,0,0,0,0,0.4753,0.4778,0.487,0.4894,0.4933,0.5006,0.5043,0.508,0.5136,0.5151,0.5158,0.5176,0.5222,0.5233,0.525,0.5309,0.5339,0.5349,0.5371,0.5389,0.5412,0.5558,0.5595,0.5196,0.5196,0.5196,0,0,0.4733,0.4782,0.4794,0.4882,0.494,0.5055,0.5024,0.51,0.5206,0.5136,0.5249,0.5239,0.5255,0.534,0.5365,0.5319,0.5521,0.5401,0.5417,0.543,0.5572,0.5611,0.5646,0.5203,0.5202,0.5201,0,0,0.4771,0.4755,0.4827,0.4902,0.5009,0.5067,0.5096,0.5196,0.5241,0.5352,0.5343,0.539,0.5436,0.5484,0.551,0.5658,0.5627,0.5645,0.5774,0.5917,0.5951,0.5981,0.6077,0.6115,0.5658,0.5659,0.5659,0,0.4761,0.4859,0.4863,0.498,0.5064,0.5088,0.5225,0.5288,0.5394,0.5484,0.5407,0.5573,0.5526,0.5705,0.5727,0.5707,0.5766,0.5671,0.5946,0.5977,0.6005,0.6096,0.6135,0.5668,0.5667,0.5666,0.5665,0,0.4899,0.4975,0.5025,0.5184,0.5259,0.5369,0.5473,0.5558,0.5598,0.5694,0.5851,0.5817,0.5922,0.5905,0.584,0.6029,0.5999,0.5955,0.5879,0.6056,0.6139,0.6177,0.5682,0.5678,0.5676,0.5673,0,0,0.493,0.5095,0.512,0.5233,0.5381,0.5476,0.5643,0.5849,0.5959,0.6061,0.6213,0.6289,0.6261,0.6285,0.6219,0.6289,0.6477,0.6188,0.6191,0.628,0.6784,0.6663,0.6691,0.6488,0.6496,0.6502,0.6765,0,0.5071,0.5302,0.5347,0.5582,0.5725,0.5793,0.5933,0.6103,0.618,0.6302,0.638,0.6451,0.6418,0.6379,0.6499,0.6424,0.6584,0.6408,0.6602,0.6608,0.6477,0.6734,0.6338,0.6532,0.6801,0.6807,0.6812,0,0.5244,0.5375,0.5614,0.5808,0.587,0.5992,0.6208,0.6326,0.6509,0.6553,0.6714,0.67,0.6827,0.6691,0.6923,0.6813,0.6852,0.6826,0.6836,0.6689,0.6558,0.64,0.659,0.6356,0.6869,0.6864,0.686,0,0.5344,0.5574,0.5762,0.5841,0.6051,0.6167,0.6263,0.6439,0.652,0.6669,0.6707,0.6925,0.6932,0.7084,0.7074,0.7001,0.7272,0.7175,0.718,0.7169,0.6852,0.6801,0.6831,0.7445,0.7445,0.7444,0.7443,0,0.5515,0.5681,0.5814,0.5942,0.6107,0.623,0.6374,0.6492,0.6603,0.6714,0.6814,0.6909,0.7021,0.7167,0.7193,0.7323,0.745,0.7272,0.7267,0.6899,0.6852,0.6642,0.6556,0.7454,0.7452,0.745,0.7448,0,0.5621,0.5733,0.5934,0.6125,0.6167,0.6272,0.6374,0.6457,0.6579,0.669,0.6727,0.6935,0.7123,0.7263,0.7427,0.7446,0.7328,0.7586,0.7118,0.7054,0.6756,0.6694,0.663,0.6453,0.7618,0.7617,0.7616,0,0.5707,0.582,0.5986,0.6033,0.6113,0.623,0.6282,0.642,0.6487,0.6725,0.6785,0.7003,0.7158,0.7401,0.7405,0.7535,0.7348,0.7255,0.7053,0.6756,0.6686,0.6493,0.6335,0.6706,0.6698,0.6691,0.6686,0,0.5807,0.5837,0.5954,0.6021,0.6091,0.6147,0.6247,0.6302,0.6474,0.6574,0.6758,0.6889,0.7125,0.7042,0.7198,0.7226,0.6834,0.7123,0.6947,0.6117,0.578,0.5595,0.65,0.6626,0.6632,0.6637,0.664,0.6642,0.5796,0.5832,0.591,0.5961,0.602,0.6054,0.604,0.6144,0.6225,0.6316,0.6607,0.6627,0.6654,0.6783,0.6804,0.6435,0.6534,0.6154,0.6154,0.6028,0.5694,0.6469,0.65,0.6505,0.6509,0.6513,0.6517,0,0.5717,0.5757,0.5824,0.5863,0.586,0.5931,0.5982,0.5901,0.5906,0.6034,0.6133,0.6011,0.5936,0.5916,0.5665,0.5448,0.5249,0.5271,0.4866,0.4801,0.5588,0.5374,0.4997,0.4997,0.4998,0.4998,0.4998,0.4998,0.5675,0.5691,0.5719,0.5675,0.5692,0.5598,0.5586,0.5482,0.5468,0.5264,0.5093,0.5154,0.5191,0.5094,0.4776,0.467,0.4345,0.4121,0.4251,0.4717,0.4795,0.487,0.4647,0.4125,0.4124,0.3171,0.3164,0.3158]},{"header":{"parameterUnit":"m.s-1","parameterCategory":2,"la1":30.2991,"la2":30.254,"lo1":-89.0895,"lo2":-89.0444,"dy":0.0017,"dx":0.0017,"nx":28,"ny":28,"refTime":"2025-07-12T03:00:00:Z","depth":"0","parameterNumber":3,"parameterNumberName":"V-component_of_CURRENTS"},"data":[0,0,0,0,0,0,0,0,0,0,0,0,0,0,0,0,0,0,0,0,0,0,0,0,0,0,0,0,0,0,0,0,0,0,0,0,0,0,0,0,0,0,0,0,0,0,0,0,0,0,0,0,0,0,0,0,0,0,-0.0108,-0.0109,0,-0.0197,-0.0199,-0.02,-0.0272,-0.0273,-0.0273,-0.0274,-0.0368,-0.037,-0.0372,0,0,0,0,0,0,0,0,0,0,0,0,0,-0.0135,-0.0134,-0.0108,-0.0109,-0.0109,-0.0197,-0.0199,-0.02,-0.0272,-0.0273,-0.0273,-0.0274,-0.0367,-0.037,-0.0373,0,0,0,0,0,0,0,0,0,0,0,0,0,-0.0167,-0.0133,-0.0108,-0.0153,-0.0158,-0.0197,-0.0199,-0.0201,-0.0272,-0.0273,-0.0273,-0.0274,-0.0367,-0.037,-0.0373,-0.0382,0,0,-0.0383,-0.0384,0,0,0,0,0,0,0,0,-0.0165,-0.0167,-0.0146,-0.015,-0.0155,-0.0221,-0.0243,-0.026,-0.0272,-0.0233,-0.0274,-0.0274,-0.0316,-0.0324,-0.0345,-0.0386,-0.039,-0.0383,-0.0385,-0.0387,-0.0388,0,0,0,0,0,0,0,-0.0163,-0.0164,-0.0148,-0.0146,-0.0152,-0.0215,-0.0219,-0.0248,-0.0274,-0.0237,-0.0241,-0.0244,-0.032,-0.0342,-0.0348,-0.0392,-0.0383,-0.0386,-0.0388,-0.0389,-0.0492,-0.0493,0,0,0,0,0,0,-0.0135,-0.0161,-0.0145,-0.015,-0.0157,-0.0213,-0.0218,-0.0202,-0.0273,-0.0284,-0.0244,-0.0247,-0.0336,-0.0344,-0.0351,-0.0369,-0.0387,-0.039,-0.0392,-0.0492,-0.0493,-0.0493,0,0,0,0,0,0,-0.0135,-0.0132,-0.0141,-0.0156,-0.0161,-0.021,-0.0193,-0.0204,-0.0221,-0.0278,-0.0289,-0.0248,-0.0337,-0.0347,-0.0393,-0.0373,-0.0391,-0.0394,-0.0491,-0.0492,-0.0493,-0.0402,0,0,0,0,0,0,-0.0135,-0.0131,-0.0116,-0.0153,-0.0159,-0.0149,-0.0193,-0.0205,-0.022,-0.0226,-0.0286,-0.0296,-0.0338,-0.0388,-0.0396,-0.0378,-0.0397,-0.049,-0.0491,-0.0493,-0.0404,-0.04,-0.0397,0,0,0,0,0,-0.0136,-0.0098,-0.0114,-0.0113,-0.0133,-0.0148,-0.0157,-0.0199,-0.0219,-0.0218,-0.028,-0.0294,-0.0403,-0.0392,-0.0401,-0.0383,-0.0489,-0.0491,-0.0493,-0.0406,-0.0401,-0.0397,0,0,0,0,0,0,-0.0097,-0.0103,-0.0121,-0.0086,-0.0112,-0.0158,-0.0158,-0.0188,-0.0235,-0.0242,-0.0305,-0.0319,-0.0356,-0.0388,-0.0374,-0.0423,-0.0447,-0.0451,-0.0378,-0.0374,-0.037,-0.0299,-0.0399,0,0,0,0,0,-0.0081,-0.0058,-0.0083,-0.0058,-0.0064,-0.0112,-0.0124,-0.0149,-0.0193,-0.0214,-0.0262,-0.0318,-0.0371,-0.0387,-0.0439,-0.0454,-0.0427,-0.0453,-0.0449,-0.0445,-0.0397,-0.037,-0.0357,-0.0499,-0.0499,-0.0499,0,0,-0.0056,-0.006,-0.0046,-0.005,-0.0074,-0.0076,-0.0121,-0.0125,-0.0132,-0.0215,-0.0243,-0.0308,-0.0378,-0.0412,-0.0428,-0.0431,-0.039,-0.0447,-0.0443,-0.0396,-0.037,-0.0355,-0.0342,-0.05,-0.05,-0.05,0,0,-0.0004,-0.0001,0.0028,0.0013,-0.0009,-0.0038,-0.0032,-0.0074,-0.0097,-0.0133,-0.0205,-0.0244,-0.0325,-0.036,-0.0392,-0.0392,-0.038,-0.0428,-0.0333,-0.0308,-0.0294,-0.0281,-0.0207,-0.0189,-0.0413,-0.0413,-0.0413,0,0.0013,0.0051,0.0032,0.0044,0.0038,-0.0014,0.0003,-0.0026,-0.0082,-0.0081,-0.0128,-0.022,-0.0288,-0.0303,-0.0323,-0.0373,-0.0349,-0.034,-0.0295,-0.0283,-0.0271,-0.0199,-0.0179,-0.0409,-0.041,-0.041,-0.041,0,0.0086,0.0099,0.0115,0.0113,0.0107,0.0113,0.0078,0.007,0.0032,0.0006,-0.0016,-0.0108,-0.014,-0.0193,-0.0264,-0.0228,-0.0232,-0.0299,-0.0289,-0.025,-0.0178,-0.0159,-0.0403,-0.0405,-0.0406,-0.0407,0,0,0.0154,0.0161,0.0165,0.0179,0.0142,0.016,0.0153,0.0152,0.0198,0.0121,0.0172,0.0051,0.0033,-0.0005,-0.0087,-0.0084,-0.0004,-0.0152,-0.0153,-0.0043,0.0095,0.003,0.0044,-0.007,-0.0067,-0.0064,0.0124,0,0.0201,0.0247,0.0234,0.0276,0.0293,0.0256,0.0275,0.0273,0.0259,0.0296,0.0223,0.0225,0.0095,0.0095,0.0078,0.002,0.0045,-0.0045,0.0013,0.0017,-0.0019,0.0062,0.0029,0.0187,0.0142,0.0145,0.0147,0,0.0266,0.029,0.0333,0.0378,0.039,0.0408,0.0466,0.0475,0.0497,0.0492,0.049,0.0451,0.0453,0.0322,0.0319,0.0266,0.0203,0.0149,0.0154,0.0084,-0.0016,0.0131,0.0222,-0.0044,0.0176,0.0173,0.0171,0,0.0325,0.0365,0.0406,0.0411,0.0447,0.0481,0.0505,0.0539,0.0589,0.0632,0.0699,0.0679,0.0708,0.0628,0.0514,0.0433,0.0517,0.0396,0.0293,0.0289,0.0274,0.0262,0.0148,0.0408,0.0407,0.0407,0.0406,0,0.0367,0.0411,0.0446,0.0471,0.0578,0.0567,0.0679,0.0705,0.0768,0.0886,0.0818,0.0928,0.078,0.0795,0.0645,0.0566,0.0638,0.0365,0.034,0.03,0.0289,0.0062,-0.0097,0.0414,0.0412,0.0411,0.041,0,0.0415,0.0417,0.0496,0.0564,0.0598,0.0678,0.0779,0.0876,0.0916,0.1074,0.1105,0.1155,0.1198,0.1059,0.0976,0.0768,0.0526,0.0604,0.0589,0.0556,0.0153,0.0002,-0.0079,-0.0176,0.0551,0.055,0.055,0,0.045,0.048,0.0584,0.0655,0.0686,0.0791,0.088,0.0932,0.1039,0.1235,0.1341,0.1434,0.1557,0.1424,0.1095,0.0894,0.0595,0.0638,0.0441,0.0174,-0.0012,-0.0132,-0.0217,0.0484,0.0483,0.0483,0.0482,0,0.0532,0.0554,0.0627,0.076,0.0862,0.0987,0.1113,0.122,0.1332,0.151,0.1764,0.1895,0.178,0.1594,0.1237,0.1007,0.0423,0.0612,0.0345,-0.005,-0.0188,-0.0309,0.0343,0.0476,0.0476,0.0477,0.0477,0.0477,0.0613,0.0681,0.0762,0.0893,0.1016,0.1171,0.1301,0.1478,0.1702,0.2034,0.2108,0.2405,0.1997,0.1538,0.1165,0.0384,0.0407,0.012,-0.0018,-0.0096,-0.0282,0.0368,0.0429,0.043,0.043,0.043,0.0431,0,0.0706,0.0765,0.0895,0.1042,0.1184,0.1227,0.146,0.1634,0.1949,0.2333,0.2613,0.2613,0.2073,0.1436,0.0399,-0.0143,-0.036,-0.0452,-0.0639,-0.0679,-0.0075,-0.0181,-0.0261,-0.0261,-0.0261,-0.0261,-0.026,-0.026,0.0758,0.0866,0.0917,0.1146,0.1263,0.1475,0.162,0.1929,0.2243,0.2735,0.2988,0.3144,0.2553,0.0739,-0.0499,-0.0774,-0.1151,-0.1234,-0.1379,-0.1026,-0.0985,-0.0945,-0.1084,-0.1352,-0.1354,-0.1931,-0.1937,-0.1942]}],[{"header":{"parameterUnit":"m.s-1","parameterCategory":2,"la1":30.2991,"la2":30.254,"lo1":-89.0895,"lo2":-89.0444,"dy":0.0017,"dx":0.0017,"nx":28,"ny":28,"refTime":"2025-07-12T03:00:00:Z","depth":"2","parameterNumber":2,"parameterNumberName":"U-component_of_CURRENTS"},"data":[0,0,0,0,0,0,0,0,0,0,0,0,0,0,0,0,0,0,0,0,0,0,0,0,0,0,0,0,0,0,0,0,0,0,0,0,0,0,0,0,0,0,0,0,0,0,0,0,0,0,0,0,0,0,0,0,0,0,0.3493,0.3494,0,0.3641,0.3643,0.3646,0.3684,0.3683,0.3681,0.368,0.361,0.3609,0.3609,0,0,0,0,0,0,0,0,0,0,0,0,0,0.3373,0.3375,0.3492,0.3494,0.3495,0.3641,0.3644,0.3646,0.3684,0.3682,0.3681,0.3679,0.361,0.3609,0.3609,0,0,0,0,0,0,0,0,0,0,0,0,0,0.3469,0.3375,0.3492,0.3527,0.3531,0.364,0.3644,0.3647,0.3685,0.3682,0.368,0.3678,0.361,0.3609,0.3608,0.3648,0,0,0.3606,0.3606,0,0,0,0,0,0,0,0,0.3463,0.3474,0.3521,0.3525,0.353,0.3637,0.3576,0.3634,0.3685,0.3633,0.368,0.3677,0.3596,0.3596,0.3641,0.3645,0.3642,0.3606,0.3606,0.3605,0.3605,0,0,0,0,0,0,0,0.3457,0.3469,0.3557,0.3522,0.3528,0.358,0.3591,0.3589,0.3625,0.3637,0.3639,0.3647,0.3597,0.3642,0.3639,0.3641,0.3606,0.3605,0.3605,0.3605,0.3709,0.3712,0,0,0,0,0,0,0.3422,0.3462,0.3553,0.3561,0.3484,0.3583,0.3596,0.3609,0.363,0.3632,0.3648,0.3648,0.3644,0.364,0.3636,0.372,0.3605,0.3605,0.3604,0.3705,0.3709,0.3713,0,0,0,0,0,0,0.3419,0.3429,0.3546,0.351,0.3527,0.3586,0.3603,0.3613,0.3652,0.364,0.3638,0.3674,0.3642,0.3637,0.3656,0.3715,0.3604,0.3604,0.3702,0.3707,0.3711,0.3862,0,0,0,0,0,0,0.3415,0.3428,0.3464,0.3508,0.3528,0.3584,0.3604,0.3618,0.3658,0.3659,0.3661,0.3654,0.364,0.3658,0.3655,0.3712,0.3603,0.3697,0.3704,0.3709,0.3853,0.3872,0.3888,0,0,0,0,0,0.3411,0.3435,0.3465,0.3478,0.3563,0.3583,0.3599,0.3638,0.3661,0.3669,0.3702,0.3653,0.3694,0.366,0.3656,0.3714,0.3695,0.3702,0.3709,0.3846,0.3868,0.3887,0,0,0,0,0,0,0.3375,0.3443,0.3476,0.3515,0.3541,0.3586,0.3622,0.3644,0.3689,0.3721,0.369,0.3685,0.3728,0.37,0.3663,0.3764,0.3688,0.3695,0.3793,0.3814,0.3831,0.3943,0.3602,0,0,0,0,0,0.3394,0.344,0.3484,0.351,0.3536,0.3589,0.3619,0.3656,0.3686,0.3707,0.3694,0.3719,0.3763,0.3766,0.378,0.3827,0.3845,0.3864,0.3881,0.3896,0.3987,0.4021,0.405,0.3736,0.3736,0.3736,0,0,0.3387,0.3427,0.3456,0.351,0.3553,0.3609,0.3602,0.3661,0.3725,0.369,0.3758,0.3768,0.3787,0.3857,0.3873,0.3835,0.3997,0.3905,0.3917,0.4003,0.4031,0.4062,0.4089,0.3741,0.374,0.374,0,0,0.3409,0.3435,0.3512,0.3526,0.3601,0.3639,0.3648,0.3706,0.3754,0.3837,0.384,0.3906,0.3922,0.3976,0.4007,0.4127,0.4083,0.4098,0.4281,0.431,0.4337,0.436,0.4434,0.4463,0.4109,0.4109,0.4109,0,0.3429,0.3483,0.3524,0.358,0.361,0.3645,0.3718,0.3777,0.383,0.3917,0.3872,0.4047,0.4013,0.4182,0.4229,0.4172,0.419,0.4194,0.4334,0.4358,0.438,0.4449,0.4479,0.4117,0.4116,0.4116,0.4115,0,0.3484,0.3539,0.3559,0.3661,0.3714,0.3743,0.3833,0.3906,0.3976,0.4061,0.4235,0.4252,0.4353,0.4351,0.4338,0.4496,0.446,0.4344,0.4283,0.4421,0.4484,0.4514,0.4129,0.4126,0.4124,0.4122,0,0,0.3521,0.3597,0.3611,0.3688,0.3749,0.3819,0.3941,0.4096,0.422,0.433,0.4498,0.4629,0.466,0.4701,0.4675,0.4744,0.4882,0.4632,0.4629,0.4715,0.4994,0.4803,0.4815,0.4768,0.4774,0.4778,0.498,0,0.3563,0.3651,0.3705,0.3834,0.3891,0.3977,0.4073,0.4244,0.4359,0.4503,0.4668,0.4794,0.4777,0.4827,0.4903,0.4847,0.4966,0.4844,0.4846,0.485,0.4667,0.4844,0.4437,0.4567,0.5008,0.5012,0.5016,0,0.3634,0.367,0.3744,0.3937,0.3985,0.407,0.4288,0.4406,0.4627,0.4724,0.4934,0.4999,0.5177,0.5087,0.5228,0.5138,0.5136,0.5127,0.5129,0.4938,0.4713,0.4499,0.4602,0.5063,0.5059,0.5056,0.5053,0,0.3605,0.3768,0.3815,0.3834,0.3992,0.4119,0.4272,0.4483,0.4582,0.4871,0.4953,0.5191,0.5265,0.5334,0.5315,0.5271,0.5427,0.5313,0.521,0.5196,0.4855,0.48,0.5499,0.5499,0.5498,0.5498,0.5497,0,0.358,0.3675,0.3808,0.3788,0.3963,0.4139,0.4305,0.4513,0.4687,0.4823,0.505,0.5155,0.5324,0.5403,0.5397,0.5382,0.5481,0.5339,0.5256,0.4893,0.4841,0.5256,0.5225,0.5505,0.5504,0.5502,0.5501,0,0.354,0.3557,0.368,0.3845,0.3906,0.4071,0.4276,0.4397,0.4593,0.4757,0.4854,0.513,0.5268,0.5396,0.5499,0.5444,0.5457,0.5441,0.5038,0.4905,0.5218,0.5193,0.5401,0.5396,0.5392,0.5389,0.5386,0,0.3517,0.3526,0.3681,0.3732,0.3801,0.3985,0.4067,0.4308,0.4404,0.4707,0.478,0.5031,0.5131,0.5247,0.5236,0.5274,0.54,0.4937,0.4797,0.5322,0.522,0.52,0.5181,0.4425,0.4414,0.4406,0.4399,0,0.3504,0.3543,0.3602,0.3596,0.3698,0.383,0.3997,0.401,0.4284,0.4394,0.455,0.4667,0.4872,0.4741,0.4843,0.4798,0.4884,0.4764,0.5413,0.4481,0.4408,0.4304,0.4317,0.4323,0.4331,0.4337,0.4341,0.4344,0.3521,0.3559,0.3511,0.3543,0.3617,0.3644,0.366,0.3783,0.3832,0.3959,0.4173,0.4223,0.4354,0.4281,0.4177,0.4153,0.4489,0.4325,0.435,0.4384,0.4203,0.4122,0.3957,0.3962,0.3966,0.397,0.3974,0,0.3455,0.3466,0.3469,0.3424,0.3392,0.351,0.3558,0.35,0.347,0.3622,0.3662,0.3412,0.339,0.3548,0.3396,0.3428,0.3386,0.331,0.3224,0.3303,0.3372,0.3136,0.261,0.2605,0.2601,0.2597,0,0,0.3419,0.3302,0.3244,0.3111,0.3166,0.3032,0.3047,0.301,0.3018,0.2918,0.2912,0.3143,0.3391,0.2911,0.2888,0.2725,0.2979,0.2622,0.372,0.3692,0.3754,0.3967,0.3694,0,0,0,0,0]},{"header":{"parameterUnit":"m.s-1","parameterCategory":2,"la1":30.2991,"la2":30.254,"lo1":-89.0895,"lo2":-89.0444,"dy":0.0017,"dx":0.0017,"nx":28,"ny":28,"refTime":"2025-07-12T03:00:00:Z","depth":"2","parameterNumber":3,"parameterNumberName":"V-component_of_CURRENTS"},"data":[0,0,0,0,0,0,0,0,0,0,0,0,0,0,0,0,0,0,0,0,0,0,0,0,0,0,0,0,0,0,0,0,0,0,0,0,0,0,0,0,0,0,0,0,0,0,0,0,0,0,0,0,0,0,0,0,0,0,0.0076,0.0076,0,0.0025,0.0024,0.0023,-0.0046,-0.0046,-0.0047,-0.0048,-0.0129,-0.013,-0.0132,0,0,0,0,0,0,0,0,0,0,0,0,0,0.0037,0.0038,0.0076,0.0076,0.0075,0.0025,0.0024,0.0023,-0.0045,-0.0046,-0.0047,-0.0048,-0.0128,-0.013,-0.0132,0,0,0,0,0,0,0,0,0,0,0,0,0,0.0024,0.0039,0.0076,0.0037,0.0034,0.0025,0.0024,0.0023,-0.0045,-0.0046,-0.0048,-0.0049,-0.0128,-0.013,-0.0132,-0.0119,0,0,-0.0138,-0.0139,0,0,0,0,0,0,0,0,0.0025,0.0025,0.0043,0.004,0.0036,-0.0003,-0.0019,-0.0025,-0.0045,-0.0019,-0.0048,-0.005,-0.0086,-0.0092,-0.0103,-0.0123,-0.0126,-0.0138,-0.014,-0.014,-0.0141,0,0,0,0,0,0,0,0.0026,0.0026,0.0052,0.0043,0.0039,-0.0004,-0.0007,-0.0021,-0.0048,-0.0021,-0.0025,-0.0025,-0.0089,-0.0101,-0.0105,-0.0128,-0.0138,-0.014,-0.0141,-0.0142,-0.0211,-0.0212,0,0,0,0,0,0,0.0044,0.0028,0.0054,0.0051,0.0031,-0.0001,-0.0005,0.0008,-0.0047,-0.0056,-0.0024,-0.0028,-0.0097,-0.0103,-0.0108,-0.0122,-0.014,-0.0142,-0.0144,-0.0211,-0.0212,-0.0212,0,0,0,0,0,0,0.0044,0.0048,0.0056,0.004,0.0038,0.0002,0.0016,0.0008,-0.0,-0.0049,-0.0059,-0.0024,-0.0098,-0.0105,-0.013,-0.0125,-0.0143,-0.0145,-0.021,-0.0211,-0.0212,-0.0133,0,0,0,0,0,0,0.0043,0.0048,0.0058,0.0042,0.004,0.0067,0.0018,0.0008,0.0003,-0.0003,-0.0051,-0.006,-0.0099,-0.0127,-0.0132,-0.0128,-0.0147,-0.0209,-0.0211,-0.0212,-0.0135,-0.0131,-0.0128,0,0,0,0,0,0.0042,0.0075,0.006,0.0062,0.0058,0.0069,0.0064,0.003,0.0005,0.0015,-0.0036,-0.0059,-0.0139,-0.0128,-0.0134,-0.0131,-0.0209,-0.021,-0.0212,-0.0136,-0.0132,-0.0128,0,0,0,0,0,0,0.0068,0.007,0.0053,0.0085,0.0081,0.0059,0.0061,0.0043,0.0012,-0.0004,-0.0054,-0.0066,-0.0091,-0.0122,-0.0109,-0.016,-0.0182,-0.0185,-0.0123,-0.0119,-0.0115,-0.012,-0.0148,0,0,0,0,0,0.0079,0.0099,0.0093,0.0117,0.0116,0.0089,0.0086,0.0068,0.0042,0.0027,-0.0006,-0.0057,-0.0101,-0.0117,-0.0156,-0.0166,-0.0191,-0.0175,-0.0172,-0.0168,-0.018,-0.0188,-0.0185,-0.0217,-0.0217,-0.0217,0,0,0.0096,0.0099,0.011,0.0123,0.0109,0.0137,0.0084,0.009,0.0101,0.0025,0.0022,-0.0039,-0.0103,-0.013,-0.0144,-0.0152,-0.0175,-0.017,-0.0166,-0.0181,-0.0189,-0.0185,-0.0182,-0.0218,-0.0218,-0.0217,0,0,0.0144,0.0142,0.017,0.0183,0.0179,0.0168,0.0178,0.0161,0.0135,0.0125,0.0058,0.0003,-0.0041,-0.0095,-0.0128,-0.0125,-0.0157,-0.0143,-0.0122,-0.0128,-0.0125,-0.0122,-0.015,-0.0151,-0.0138,-0.0138,-0.0138,0,0.0152,0.0203,0.0181,0.022,0.0231,0.0194,0.023,0.0215,0.0191,0.0166,0.0133,0.0013,-0.0027,-0.0088,-0.0101,-0.0114,-0.0134,-0.0124,-0.012,-0.0118,-0.0117,-0.0146,-0.0148,-0.0134,-0.0135,-0.0135,-0.0135,0,0.0242,0.027,0.0292,0.0327,0.0333,0.0365,0.0344,0.0342,0.03,0.0264,0.0185,0.0093,0.0015,-0.0008,-0.0055,-0.0085,-0.0108,-0.0109,-0.0119,-0.0108,-0.0141,-0.0144,-0.0129,-0.013,-0.0131,-0.0132,0,0,0.0288,0.0339,0.0348,0.0375,0.0392,0.0414,0.0425,0.0415,0.0427,0.0337,0.0299,0.0187,0.01,0.0053,-0.0028,-0.0051,-0.0055,-0.0078,-0.008,-0.0088,-0.0086,-0.01,-0.0105,-0.0048,-0.0048,-0.0048,-0.0112,0,0.0356,0.0451,0.0446,0.0524,0.0569,0.0537,0.057,0.0549,0.0495,0.0459,0.0301,0.0241,0.0135,0.0085,0.0035,-0.0016,-0.0061,-0.004,-0.0114,-0.0118,-0.0114,-0.0108,-0.0092,-0.0147,-0.0115,-0.0115,-0.0116,0,0.0443,0.0502,0.0588,0.0633,0.0648,0.0681,0.07,0.0719,0.0649,0.0587,0.045,0.034,0.023,0.0153,0.0033,0.0053,-0.0029,-0.0079,-0.0082,-0.0128,-0.0136,-0.0157,-0.0154,-0.0121,-0.0121,-0.0121,-0.012,0,0.052,0.0584,0.0654,0.0684,0.0748,0.0755,0.0771,0.0751,0.0782,0.0649,0.0641,0.0452,0.0387,0.0253,0.0117,0.0085,0.001,-0.0033,-0.0145,-0.0148,-0.0169,-0.0173,-0.0132,-0.0132,-0.0132,-0.0131,-0.0131,0,0.0613,0.066,0.0695,0.0769,0.0833,0.0836,0.0897,0.0871,0.087,0.094,0.0702,0.0721,0.042,0.033,0.0167,0.0018,0.005,-0.0152,-0.0162,-0.0143,-0.0144,-0.0152,-0.0153,-0.0134,-0.0133,-0.0133,-0.0132,0,0.0662,0.071,0.0786,0.0862,0.0879,0.0915,0.0989,0.1067,0.1038,0.1111,0.108,0.094,0.0819,0.0528,0.0333,0.0128,-0.0029,-0.0099,-0.0077,-0.0085,-0.0213,-0.021,-0.0254,-0.0255,-0.0255,-0.0256,-0.0257,0,0.0684,0.0745,0.0844,0.0909,0.0931,0.0999,0.1093,0.1117,0.1229,0.1309,0.1384,0.1245,0.1188,0.0828,0.043,0.0076,0.0028,-0.0146,-0.0224,-0.0218,-0.0224,-0.0219,-0.0215,-0.0228,-0.0228,-0.0228,-0.0229,0,0.0717,0.0749,0.0835,0.1025,0.1114,0.1212,0.1347,0.1469,0.1579,0.1655,0.1817,0.1778,0.1378,0.0996,0.0438,0.0211,-0.0103,-0.0163,-0.0128,-0.0194,-0.0197,-0.0202,-0.0198,-0.0231,-0.023,-0.023,-0.023,-0.023,0.0713,0.0768,0.0959,0.1113,0.1241,0.145,0.1582,0.1775,0.1986,0.2141,0.2139,0.2053,0.1575,0.084,0.0422,-0.0082,-0.0081,-0.0274,-0.0272,-0.027,-0.025,-0.0253,-0.0295,-0.0295,-0.0296,-0.0296,-0.0296,0,0.0762,0.0867,0.105,0.1277,0.1471,0.1517,0.1794,0.1959,0.2225,0.2311,0.238,0.1936,0.1485,0.0955,0.0204,-0.0224,-0.0269,-0.035,-0.0323,-0.0319,-0.0315,-0.0297,-0.0356,-0.0357,-0.0358,-0.0359,0,0,0.0801,0.1016,0.1152,0.1483,0.1607,0.1902,0.2053,0.2245,0.2379,0.2444,0.2355,0.2215,0.1596,0.1051,0.0465,0.0053,-0.003,-0.0026,0.0062,0.0165,0.0175,-0.024,-0.0203,0,0,0,0,0]}],[{"header":{"parameterUnit":"m.s-1","parameterCategory":2,"la1":30.2991,"la2":30.254,"lo1":-89.0895,"lo2":-89.0444,"dy":0.0017,"dx":0.0017,"nx":28,"ny":28,"refTime":"2025-07-12T03:00:00:Z","depth":"4","parameterNumber":2,"parameterNumberName":"U-component_of_CURRENTS"},"data":[0,0,0,0,0,0,0,0,0,0,0,0,0,0,0,0,0,0,0,0,0,0,0,0,0,0,0,0,0,0,0,0,0,0,0,0,0,0,0,0,0,0,0,0,0,0,0,0,0,0,0,0,0,0,0,0,0,0,0.1691,0.1691,0,0.1763,0.1764,0.1765,0.1836,0.1837,0.1838,0.1839,0.1951,0.1953,0.1955,0,0,0,0,0,0,0,0,0,0,0,0,0,0.1584,0.1585,0.1691,0.1691,0.1692,0.1763,0.1764,0.1765,0.1836,0.1837,0.1838,0.1839,0.195,0.1953,0.1955,0,0,0,0,0,0,0,0,0,0,0,0,0,0.1641,0.1586,0.169,0.1736,0.1741,0.1763,0.1764,0.1765,0.1836,0.1837,0.1839,0.184,0.1949,0.1952,0.1956,0.1949,0,0,0.1965,0.1967,0,0,0,0,0,0,0,0,0.1638,0.1645,0.1728,0.1733,0.1738,0.1792,0.1767,0.1829,0.1836,0.18,0.1839,0.1841,0.19,0.1907,0.1918,0.1954,0.1959,0.1966,0.1968,0.1969,0.197,0,0,0,0,0,0,0,0.1634,0.1642,0.172,0.1729,0.1735,0.1742,0.1752,0.1779,0.1843,0.1803,0.1809,0.1816,0.1903,0.1915,0.1921,0.196,0.1966,0.1969,0.197,0.1972,0.2105,0.2107,0,0,0,0,0,0,0.1624,0.1638,0.1718,0.1722,0.169,0.1743,0.1754,0.1774,0.1842,0.1853,0.1814,0.1819,0.1909,0.1918,0.1926,0.1984,0.1969,0.1972,0.1974,0.2103,0.2105,0.2107,0,0,0,0,0,0,0.1622,0.1631,0.1715,0.168,0.1692,0.1744,0.1765,0.1774,0.1832,0.185,0.1862,0.1867,0.191,0.1921,0.1969,0.1986,0.1974,0.1976,0.2102,0.2104,0.2106,0.206,0,0,0,0,0,0,0.1618,0.163,0.1658,0.168,0.1693,0.1746,0.1764,0.1775,0.1831,0.1839,0.1898,0.1907,0.1912,0.1964,0.1972,0.199,0.1979,0.2099,0.2103,0.2105,0.2059,0.206,0.2061,0,0,0,0,0,0.1614,0.1634,0.1659,0.167,0.1725,0.1746,0.1754,0.1795,0.1833,0.1854,0.1891,0.1908,0.199,0.1967,0.1976,0.1996,0.2098,0.2102,0.2105,0.2059,0.206,0.2061,0,0,0,0,0,0,0.1608,0.1644,0.1672,0.1706,0.1736,0.1759,0.179,0.182,0.1868,0.1891,0.1916,0.1926,0.1986,0.2002,0.1976,0.2049,0.2053,0.2058,0.2015,0.2016,0.2017,0.2025,0.1982,0,0,0,0,0,0.1617,0.1647,0.1677,0.1712,0.1731,0.1773,0.1798,0.1824,0.1858,0.1884,0.1929,0.1973,0.2001,0.2017,0.2057,0.2081,0.2131,0.2108,0.2109,0.2109,0.2127,0.2295,0.2313,0.2119,0.2119,0.2119,0,0,0.1628,0.1651,0.1672,0.1713,0.1747,0.1741,0.1793,0.1838,0.1842,0.1887,0.1938,0.1992,0.2016,0.2047,0.2074,0.2061,0.2165,0.2114,0.2113,0.2131,0.2301,0.232,0.2337,0.2121,0.2121,0.2121,0,0,0.1631,0.1686,0.1702,0.1721,0.1766,0.1763,0.1785,0.1837,0.1882,0.1918,0.1961,0.2039,0.2067,0.21,0.2109,0.2149,0.2182,0.2156,0.2144,0.2306,0.2324,0.2341,0.2308,0.2322,0.2136,0.2136,0.2136,0,0.1644,0.166,0.171,0.1717,0.1724,0.177,0.1766,0.1795,0.186,0.1926,0.1934,0.2065,0.2095,0.2138,0.2135,0.2153,0.2188,0.2124,0.2308,0.2326,0.2344,0.2309,0.2325,0.2134,0.2134,0.2135,0.2135,0,0.1636,0.1659,0.1671,0.1677,0.169,0.1702,0.1726,0.1785,0.184,0.1895,0.2015,0.2062,0.2153,0.2158,0.2138,0.2265,0.2221,0.2304,0.23,0.2361,0.2317,0.2335,0.2132,0.2132,0.2133,0.2133,0,0,0.1629,0.1657,0.167,0.1668,0.1674,0.168,0.1703,0.1757,0.1837,0.191,0.2014,0.2067,0.2166,0.2185,0.2209,0.2307,0.2408,0.2336,0.2346,0.2288,0.2633,0.2511,0.2517,0.2539,0.2545,0.255,0.2505,0,0.1607,0.1604,0.1623,0.1603,0.1585,0.164,0.1665,0.1738,0.1825,0.1943,0.2042,0.2155,0.2145,0.2213,0.2307,0.2441,0.2475,0.2404,0.2596,0.2598,0.2477,0.2545,0.2569,0.2519,0.2523,0.2526,0.2528,0,0.1555,0.1571,0.1556,0.1579,0.1592,0.1593,0.1686,0.1722,0.1889,0.2002,0.2134,0.2219,0.2346,0.2355,0.2559,0.2518,0.2557,0.2618,0.2621,0.2555,0.2517,0.2481,0.2562,0.2559,0.2557,0.2554,0.2552,0,0.1468,0.1499,0.1487,0.1492,0.1537,0.1588,0.1626,0.1771,0.1869,0.2066,0.2197,0.2338,0.245,0.2583,0.2683,0.2656,0.2891,0.2888,0.2763,0.2746,0.2884,0.2869,0.3018,0.3018,0.3018,0.3018,0.3018,0,0.1363,0.1364,0.147,0.1464,0.1516,0.1566,0.1676,0.1773,0.1953,0.2088,0.2241,0.235,0.2543,0.2671,0.2725,0.2798,0.2941,0.2765,0.2778,0.2842,0.2824,0.2887,0.2873,0.3016,0.3016,0.3017,0.3017,0,0.121,0.1283,0.1285,0.14,0.1459,0.1494,0.1684,0.176,0.1986,0.2158,0.2232,0.2419,0.2607,0.2729,0.2923,0.2855,0.2948,0.2915,0.2866,0.2876,0.2633,0.2617,0.2744,0.2741,0.2738,0.2735,0.2733,0,0.1102,0.1095,0.124,0.1283,0.1339,0.1455,0.1531,0.1749,0.1848,0.2175,0.2223,0.2454,0.2572,0.2701,0.2846,0.2924,0.2909,0.2843,0.2807,0.263,0.263,0.2618,0.2606,0.2729,0.2728,0.2727,0.2726,0,0.0912,0.0999,0.1033,0.1153,0.1238,0.1324,0.1464,0.1555,0.1812,0.2041,0.2209,0.2323,0.2497,0.2608,0.27,0.2751,0.2856,0.281,0.2815,0.2781,0.2613,0.2613,0.2604,0.2716,0.2717,0.2718,0.2719,0,0.0797,0.08,0.0909,0.1001,0.11,0.1165,0.1266,0.1418,0.1574,0.1958,0.1984,0.2267,0.2449,0.2516,0.2613,0.2675,0.2627,0.2505,0.2524,0.2537,0.251,0.2269,0.2291,0,0,0,0,0,0.0692,0.0721,0.0758,0.0867,0.0947,0.1028,0.1205,0.1323,0.1616,0.1685,0.186,0.2031,0.2211,0.2313,0.2344,0.2504,0.2612,0.2521,0.2471,0.2658,0.267,0.2669,0,0,0,0,0,0,0.0643,0.0679,0.0715,0.0746,0.0789,0.0876,0.098,0.1155,0.124,0.1543,0.1654,0.1882,0.208,0.2191,0.2296,0.2337,0.2258,0.2696,0.2691,0.2652,0.2662,0.2672,0.2675,0,0,0,0,0]},{"header":{"parameterUnit":"m.s-1","parameterCategory":2,"la1":30.2991,"la2":30.254,"lo1":-89.0895,"lo2":-89.0444,"dy":0.0017,"dx":0.0017,"nx":28,"ny":28,"refTime":"2025-07-12T03:00:00:Z","depth":"4","parameterNumber":3,"parameterNumberName":"V-component_of_CURRENTS"},"data":[0,0,0,0,0,0,0,0,0,0,0,0,0,0,0,0,0,0,0,0,0,0,0,0,0,0,0,0,0,0,0,0,0,0,0,0,0,0,0,0,0,0,0,0,0,0,0,0,0,0,0,0,0,0,0,0,0,0,0.0186,0.0186,0,0.0184,0.0183,0.0183,0.0162,0.0161,0.0161,0.016,0.0095,0.0094,0.0093,0,0,0,0,0,0,0,0,0,0,0,0,0,0.015,0.0151,0.0186,0.0186,0.0186,0.0184,0.0183,0.0183,0.0162,0.0161,0.0161,0.016,0.0096,0.0094,0.0093,0,0,0,0,0,0,0,0,0,0,0,0,0,0.0158,0.0151,0.0186,0.0175,0.0174,0.0184,0.0183,0.0183,0.0162,0.0161,0.016,0.016,0.0096,0.0095,0.0093,0.0095,0,0,0.0087,0.0086,0,0,0,0,0,0,0,0,0.0158,0.0159,0.0177,0.0176,0.0175,0.0173,0.0147,0.0151,0.0162,0.0166,0.016,0.0159,0.0117,0.0113,0.0114,0.0092,0.0089,0.0087,0.0085,0.0085,0.0084,0,0,0,0,0,0,0,0.0157,0.0159,0.0184,0.0177,0.0176,0.0164,0.0164,0.0148,0.0144,0.0165,0.0164,0.0165,0.0115,0.0116,0.0112,0.0088,0.0087,0.0085,0.0084,0.0083,0.0043,0.0043,0,0,0,0,0,0,0.0161,0.0159,0.0184,0.0184,0.0165,0.0165,0.0165,0.0174,0.0145,0.0141,0.0166,0.0164,0.012,0.0114,0.011,0.0125,0.0085,0.0083,0.0082,0.0043,0.0043,0.0043,0,0,0,0,0,0,0.016,0.0164,0.0184,0.0171,0.0173,0.0167,0.0176,0.0174,0.0177,0.0146,0.014,0.0171,0.0119,0.0112,0.0106,0.0121,0.0082,0.008,0.0043,0.0043,0.0043,0.0145,0,0,0,0,0,0,0.016,0.0164,0.0175,0.0172,0.0174,0.02,0.0177,0.0175,0.0179,0.0177,0.0149,0.0142,0.0118,0.0109,0.0104,0.0118,0.0079,0.0043,0.0043,0.0043,0.0142,0.0149,0.0155,0,0,0,0,0,0.0158,0.0184,0.0176,0.0179,0.0189,0.0201,0.0202,0.0193,0.018,0.0191,0.0171,0.0143,0.0105,0.0109,0.0102,0.0116,0.0043,0.0043,0.0043,0.0139,0.0148,0.0155,0,0,0,0,0,0,0.0178,0.0184,0.0175,0.0201,0.0202,0.0198,0.0209,0.02,0.0194,0.019,0.0155,0.0148,0.0144,0.0113,0.0117,0.01,0.0065,0.0064,0.014,0.0147,0.0154,0.0178,0.0077,0,0,0,0,0,0.0187,0.0204,0.0203,0.0223,0.0225,0.0216,0.022,0.0215,0.0208,0.0206,0.0189,0.0161,0.0141,0.0132,0.0109,0.0109,0.0048,0.0107,0.0114,0.012,0.0133,0.004,0.004,0.0044,0.0044,0.0044,0,0,0.0199,0.0204,0.0214,0.0228,0.0225,0.0246,0.0217,0.0231,0.0252,0.0198,0.0222,0.0188,0.0145,0.0145,0.0139,0.0123,0.0086,0.012,0.0126,0.0136,0.004,0.004,0.004,0.0044,0.0044,0.0044,0,0,0.0237,0.0236,0.0264,0.027,0.0276,0.0272,0.0279,0.0281,0.0285,0.0301,0.0262,0.0239,0.0221,0.0192,0.0174,0.02,0.0124,0.0186,0.0245,0.0155,0.0154,0.0152,0.0076,0.0067,0.019,0.0191,0.0191,0,0.0247,0.0289,0.0274,0.0302,0.0321,0.0288,0.0328,0.0326,0.0329,0.0343,0.032,0.0279,0.0243,0.0231,0.0244,0.0217,0.0155,0.0225,0.0165,0.0162,0.0158,0.008,0.0069,0.0196,0.0195,0.0195,0.0194,0,0.031,0.034,0.0357,0.0382,0.0398,0.0425,0.0423,0.0438,0.0435,0.0433,0.0428,0.037,0.0345,0.0324,0.0299,0.0264,0.0225,0.0184,0.015,0.0164,0.0081,0.0067,0.0203,0.0201,0.0199,0.0198,0,0,0.0355,0.0394,0.0405,0.0439,0.0449,0.0477,0.0506,0.0538,0.0566,0.0539,0.0556,0.0515,0.0472,0.0446,0.0389,0.0318,0.0243,0.0256,0.0249,0.0192,0.0049,0.0056,0.0041,0.0188,0.0186,0.0185,0.0001,0,0.0414,0.0494,0.0496,0.0574,0.0618,0.0605,0.0639,0.0656,0.0655,0.0656,0.0583,0.0573,0.0519,0.0502,0.0422,0.0291,0.0211,0.0297,0.0034,0.0027,0.004,0.0027,0.0179,-0.0009,-0.0013,-0.0015,-0.0017,0,0.0492,0.0537,0.0631,0.069,0.0709,0.0745,0.0805,0.0833,0.0813,0.0808,0.0765,0.0694,0.0609,0.0539,0.0323,0.0379,0.0231,0.0116,0.0104,0.007,0.0009,-0.0031,-0.0043,-0.0041,-0.0039,-0.0037,-0.0035,0,0.057,0.064,0.0727,0.0748,0.08,0.0846,0.0874,0.089,0.0931,0.0899,0.0903,0.0776,0.0705,0.0515,0.0292,0.0301,0.0023,-0.0006,-0.0144,-0.0146,-0.0142,-0.0139,-0.018,-0.018,-0.0179,-0.0179,-0.0178,0,0.0651,0.0716,0.0774,0.0825,0.0929,0.0934,0.1033,0.1043,0.1046,0.1079,0.0985,0.0941,0.0692,0.0506,0.03,0.0043,0.002,-0.0132,-0.0193,-0.0095,-0.0084,-0.0153,-0.0147,-0.0186,-0.0184,-0.0183,-0.0182,0,0.0718,0.0757,0.0858,0.0937,0.0975,0.1052,0.1142,0.119,0.1197,0.1221,0.1211,0.105,0.0821,0.0564,0.0225,0.0064,-0.0189,-0.0286,-0.0153,-0.0204,-0.0299,-0.0286,-0.044,-0.0441,-0.0442,-0.0443,-0.0444,0,0.0755,0.0819,0.095,0.1014,0.1055,0.1164,0.123,0.1272,0.1311,0.1275,0.1265,0.1072,0.0934,0.0479,0.0195,-0.0189,-0.0248,-0.038,-0.0334,-0.0282,-0.0326,-0.0312,-0.0298,-0.0445,-0.0446,-0.0446,-0.0446,0,0.0813,0.0865,0.0938,0.1082,0.1177,0.1288,0.1372,0.1411,0.1431,0.1442,0.131,0.1086,0.0816,0.0471,0.0173,-0.011,-0.0285,-0.0392,-0.0391,-0.035,-0.0291,-0.0331,-0.0316,-0.045,-0.0449,-0.0449,-0.0449,0,0.0842,0.0897,0.1,0.1124,0.1243,0.1344,0.1405,0.142,0.1461,0.1414,0.1346,0.1078,0.0909,0.0506,0.022,-0.0036,-0.0096,-0.018,-0.0191,-0.019,-0.0055,0.006,-0.0044,0,0,0,0,0,0.0865,0.0924,0.1029,0.1158,0.1271,0.1357,0.1456,0.1493,0.1514,0.1438,0.1404,0.1156,0.0745,0.0548,0.0296,0.0193,-0.0146,-0.0113,-0.025,-0.0471,-0.0466,-0.0348,0,0,0,0,0,0,0.0877,0.0969,0.1021,0.1155,0.1247,0.1379,0.1452,0.1473,0.1428,0.1407,0.119,0.1096,0.0694,0.0899,0.0293,0.0213,0.0091,-0.0299,-0.0304,-0.0473,-0.0469,-0.0466,-0.0343,0,0,0,0,0]}]]